Location: Argonnex
(45.9500°N, 6.1333°E)
Time: 10:27:32
(UTC+00:00)

Cosmos 2266 Rocket - Pass Details

Date: 01 October 2023
Orbit: 933 x 1008 km, 82.9° (Epoch: 10 December)

Event Time Altitude Azimuth Distance (km) Brightness Sun altitude
Exits shadow 00:56:38 16° 83° (E) 2,383 6.3 -42.7°
Maximum altitude 00:57:04 16° 78° (ENE) 2,379 6.3 -42.6°
Drops below altitude 10° 01:00:36 10° 44° (NE) 2,784 7.0 -42.3°
Sets 01:04:15 0° 24° (NNE) 3,746 7.9 -42.0°
